| time (UTC) | temp C | wind direction | speed KPH | gust KPH | rain 1hr cm | rain 24hr cm | rain mn cm | humidity % | barometer mb |
| 20260508173603 | 21 | 275 | 4.8 | 12.9 | 0.00 | 0.00 | 0.00 | 53 | 1017.1 |
| 20260508172724 | 21 | 296 | 6.4 | 14.5 | 0.00 | 0.00 | 0.00 | 56 | 1017.1 |
| 20260508171824 | 21 | 297 | 6.4 | 12.9 | 0.00 | 0.00 | 0.00 | 56 | 1017.1 |
| 20260508170924 | 21 | 320 | 6.4 | 14.5 | 0.00 | 0.00 | 0.00 | 57 | 1017.1 |
| 20260508170024 | 20 | 320 | 8.0 | 16.1 | 0.00 | 0.00 | 0.00 | 59 | 1017.1 |
| 20260508165424 | 20 | 312 | 6.4 | 16.1 | 0.00 | 0.00 | 0.00 | 60 | 1017.1 |
| 20260508164524 | 20 | 293 | 6.4 | 12.9 | 0.00 | 0.00 | 0.00 | 61 | 1017.2 |
| 20260508163624 | 19 | 295 | 6.4 | 16.1 | 0.00 | 0.00 | 0.00 | 62 | 1017.1 |
| 20260508162724 | 18 | 294 | 6.4 | 16.1 | 0.00 | 0.00 | 0.00 | 64 | 1017.2 |
| 20260508161824 | 18 | 297 | 6.4 | 17.7 | 0.00 | 0.00 | 0.00 | 66 | 1017.2 |
| 20260508160925 | 17 | 280 | 4.8 | 12.9 | 0.00 | 0.00 | 0.00 | 68 | 1017.2 |
| 20260508160003 | 17 | 250 | 3.2 | 12.9 | 0.00 | 0.00 | 0.00 | 68 | 1017.2 |
| 20260508155404 | 17 | 285 | 4.8 | 14.5 | 0.00 | 0.00 | 0.00 | 68 | 1017.2 |
| 20260508154503 | 16 | 302 | 4.8 | 16.1 | 0.00 | 0.00 | 0.00 | 71 | 1017.2 |
| 20260508153603 | 16 | 274 | 6.4 | 16.1 | 0.00 | 0.00 | 0.00 | 72 | 1017.2 |
| 20260508152704 | 16 | 285 | 4.8 | 16.1 | 0.00 | 0.00 | 0.00 | 74 | 1017.4 |
| 20260508151803 | 15 | 278 | 4.8 | 14.5 | 0.00 | 0.00 | 0.00 | 76 | 1017.3 |
| 20260508150924 | 15 | 283 | 4.8 | 14.5 | 0.00 | 0.00 | 0.00 | 78 | 1017.2 |
| 20260508150004 | 15 | 279 | 4.8 | 17.7 | 0.00 | 0.00 | 0.00 | 80 | 1017.1 |
| 20260508145403 | 14 | 281 | 4.8 | 11.3 | 0.00 | 0.00 | 0.00 | 81 | 1017.1 |
| 20260508144503 | 13 | 303 | 4.8 | 16.1 | 0.00 | 0.00 | 0.00 | 82 | 1017.0 |
| 20260508143603 | 13 | 281 | 3.2 | 11.3 | 0.00 | 0.00 | 0.00 | 84 | 1017.0 |
| 20260508142703 | 13 | 299 | 4.8 | 12.9 | 0.00 | 0.00 | 0.00 | 85 | 1016.8 |
| 20260508141803 | 12 | 292 | 3.2 | 9.7 | 0.00 | 0.00 | 0.00 | 86 | 1016.7 |
| 20260508140903 | 12 | 329 | 3.2 | 8.0 | 0.00 | 0.00 | 0.00 | 87 | 1016.7 |
| 20260508140003 | 11 | 325 | 3.2 | 8.0 | 0.00 | 0.00 | 0.00 | 88 | 1016.5 |
| 20260508135424 | 11 | 314 | 3.2 | 8.0 | 0.00 | 0.00 | 0.00 | 88 | 1016.5 |
| 20260508134503 | 11 | 316 | 1.6 | 4.8 | 0.00 | 0.00 | 0.00 | 88 | 1016.3 |
| 20260508133603 | 11 | 312 | 1.6 | 3.2 | 0.00 | 0.00 | 0.00 | 88 | 1016.4 |
| 20260508132703 | 11 | 305 | 1.6 | 3.2 | 0.00 | 0.00 | 0.00 | 88 | 1016.3 |
| 20260508131803 | 11 | 287 | 1.6 | 3.2 | 0.00 | 0.00 | 0.00 | 88 | 1016.2 |
| 20260508130903 | 11 | 301 | 1.6 | 3.2 | 0.00 | 0.00 | 0.00 | 87 | 1016.2 |
| 20260508130003 | 11 | 306 | 1.6 | 4.8 | 0.00 | 0.00 | 0.00 | 87 | 1016.3 |
| 20260508125424 | 11 | 311 | 1.6 | 3.2 | 0.00 | 0.00 | 0.00 | 87 | 1016.3 |
| 20260508124503 | 11 | 314 | 3.2 | 8.0 | 0.00 | 0.00 | 0.00 | 87 | 1016.3 |
| 20260508123624 | 11 | 293 | 3.2 | 9.7 | 0.00 | 0.00 | 0.00 | 88 | 1016.4 |
| 20260508122724 | 11 | 301 | 1.6 | 6.4 | 0.00 | 0.00 | 0.00 | 88 | 1016.4 |
| 20260508121824 | 11 | 323 | 1.6 | 4.8 | 0.00 | 0.00 | 0.00 | 88 | 1016.1 |
| 20260508120924 | 11 | 311 | 0.0 | 3.2 | 0.00 | 0.00 | 0.00 | 87 | 1016.0 |
| 20260508120024 | 11 | 307 | 1.6 | 3.2 | 0.00 | 0.00 | 0.00 | 87 | 1015.9 |
| 20260508115403 | 11 | 316 | 1.6 | 4.8 | 0.00 | 0.00 | 0.00 | 87 | 1016.0 |
| 20260508114503 | 11 | 306 | 1.6 | 4.8 | 0.00 | 0.00 | 0.00 | 87 | 1016.0 |
| 20260508113603 | 11 | 310 | 1.6 | 4.8 | 0.00 | 0.00 | 0.00 | 87 | 1016.0 |
| 20260508112703 | 11 | 311 | 1.6 | 4.8 | 0.00 | 0.00 | 0.00 | 87 | 1015.9 |
| 20260508111803 | 11 | 300 | 1.6 | 6.4 | 0.00 | 0.00 | 0.00 | 87 | 1015.9 |
| 20260508110903 | 11 | 290 | 1.6 | 4.8 | 0.00 | 0.00 | 0.00 | 87 | 1016.0 |
| 20260508110003 | 11 | 301 | 1.6 | 9.7 | 0.00 | 0.00 | 0.00 | 87 | 1015.9 |
| 20260508105403 | 11 | 305 | 1.6 | 6.4 | 0.00 | 0.00 | 0.00 | 87 | 1015.9 |
| 20260508104503 | 11 | 313 | 1.6 | 6.4 | 0.00 | 0.00 | 0.00 | 87 | 1015.9 |
| 20260508103603 | 12 | 319 | 1.6 | 4.8 | 0.00 | 0.00 | 0.00 | 87 | 1015.7 |
| 20260508102703 | 12 | 320 | 1.6 | 4.8 | 0.00 | 0.00 | 0.00 | 87 | 1015.7 |
| 20260508101803 | 12 | 310 | 1.6 | 4.8 | 0.00 | 0.00 | 0.00 | 86 | 1015.6 |
| 20260508100903 | 12 | 315 | 1.6 | 4.8 | 0.00 | 0.00 | 0.00 | 86 | 1015.6 |
| 20260508100003 | 12 | 329 | 1.6 | 4.8 | 0.00 | 0.00 | 0.00 | 86 | 1015.6 |
| 20260508095404 | 12 | 331 | 0.0 | 4.8 | 0.00 | 0.00 | 0.00 | 86 | 1015.5 |
| 20260508094503 | 12 | 320 | 1.6 | 4.8 | 0.00 | 0.00 | 0.00 | 86 | 1015.5 |
| 20260508093603 | 12 | 312 | 1.6 | 6.4 | 0.00 | 0.00 | 0.00 | 86 | 1015.5 |
| 20260508092703 | 12 | 312 | 1.6 | 4.8 | 0.00 | 0.00 | 0.00 | 86 | 1015.5 |
| 20260508091824 | 12 | 304 | 1.6 | 6.4 | 0.00 | 0.00 | 0.00 | 87 | 1015.5 |
| 20260508090903 | 12 | 286 | 1.6 | 6.4 | 0.00 | 0.00 | 0.00 | 87 | 1015.4 |
| 20260508090024 | 12 | 293 | 1.6 | 6.4 | 0.00 | 0.00 | 0.00 | 86 | 1015.3 |
| 20260508085403 | 12 | 299 | 1.6 | 6.4 | 0.00 | 0.00 | 0.00 | 86 | 1015.4 |
| 20260508084524 | 12 | 296 | 1.6 | 4.8 | 0.00 | 0.00 | 0.00 | 86 | 1015.4 |
| 20260508083603 | 12 | 304 | 1.6 | 8.0 | 0.00 | 0.00 | 0.00 | 86 | 1015.5 |
| 20260508082703 | 12 | 311 | 1.6 | 4.8 | 0.00 | 0.00 | 0.00 | 85 | 1015.5 |
| 20260508081803 | 13 | 314 | 1.6 | 6.4 | 0.00 | 0.00 | 0.00 | 85 | 1015.5 |
| 20260508080903 | 13 | 318 | 1.6 | 6.4 | 0.00 | 0.00 | 0.00 | 85 | 1015.7 |
| 20260508080003 | 13 | 298 | 1.6 | 6.4 | 0.00 | 0.00 | 0.00 | 84 | 1015.6 |
| 20260508075403 | 13 | 294 | 1.6 | 4.8 | 0.00 | 0.00 | 0.00 | 84 | 1015.6 |
| 20260508074524 | 13 | 308 | 1.6 | 4.8 | 0.00 | 0.00 | 0.00 | 83 | 1015.5 |
| 20260508073603 | 13 | 310 | 1.6 | 4.8 | 0.00 | 0.00 | 0.00 | 83 | 1015.3 |
| 20260508072703 | 13 | 306 | 1.6 | 6.4 | 0.00 | 0.00 | 0.00 | 82 | 1015.2 |
| 20260508071803 | 13 | 308 | 3.2 | 6.4 | 0.00 | 0.00 | 0.00 | 82 | 1015.3 |
| 20260508070903 | 14 | 304 | 1.6 | 6.4 | 0.00 | 0.00 | 0.00 | 82 | 1015.2 |
| 20260508070003 | 14 | 323 | 1.6 | 6.4 | 0.00 | 0.00 | 0.00 | 81 | 1015.1 |
| 20260508065403 | 14 | 305 | 1.6 | 6.4 | 0.00 | 0.00 | 0.00 | 80 | 1015.1 |
| 20260508064524 | 14 | 304 | 1.6 | 6.4 | 0.00 | 0.00 | 0.00 | 80 | 1015.1 |
| 20260508063624 | 15 | 295 | 1.6 | 11.3 | 0.00 | 0.00 | 0.00 | 79 | 1015.1 |
| 20260508062724 | 15 | 295 | 1.6 | 4.8 | 0.00 | 0.00 | 0.00 | 78 | 1015.2 |
| 20260508061824 | 15 | 296 | 1.6 | 6.4 | 0.00 | 0.00 | 0.00 | 78 | 1015.1 |
| 20260508060924 | 15 | 301 | 1.6 | 4.8 | 0.00 | 0.00 | 0.00 | 77 | 1015.2 |
| 20260508060003 | 15 | 289 | 1.6 | 4.8 | 0.00 | 0.00 | 0.00 | 76 | 1015.2 |
| 20260508055403 | 15 | 296 | 1.6 | 3.2 | 0.00 | 0.00 | 0.00 | 76 | 1015.1 |
| 20260508054503 | 16 | 294 | 1.6 | 6.4 | 0.00 | 0.00 | 0.00 | 75 | 1015.2 |
| 20260508053603 | 16 | 304 | 1.6 | 6.4 | 0.00 | 0.00 | 0.00 | 74 | 1015.2 |
| 20260508052707 | 16 | 292 | 1.6 | 9.7 | 0.00 | 0.00 | 0.00 | 73 | 1015.2 |
| 20260508051803 | 16 | 304 | 3.2 | 8.0 | 0.00 | 0.00 | 0.00 | 72 | 1015.2 |
| 20260508050903 | 17 | 304 | 3.2 | 6.4 | 0.00 | 0.00 | 0.00 | 72 | 1015.3 |
| 20260508050024 | 17 | 305 | 3.2 | 11.3 | 0.00 | 0.00 | 0.00 | 70 | 1015.2 |
| 20260508045403 | 17 | 285 | 3.2 | 6.4 | 0.00 | 0.00 | 0.00 | 70 | 1015.2 |
| 20260508044503 | 17 | 291 | 3.2 | 11.3 | 0.00 | 0.00 | 0.00 | 69 | 1015.2 |
| 20260508043603 | 18 | 287 | 3.2 | 11.3 | 0.00 | 0.00 | 0.00 | 68 | 1015.1 |
| 20260508042703 | 18 | 284 | 3.2 | 8.0 | 0.00 | 0.00 | 0.00 | 67 | 1015.1 |
| 20260508041803 | 18 | 279 | 3.2 | 6.4 | 0.00 | 0.00 | 0.00 | 66 | 1015.2 |
| 20260508040903 | 18 | 309 | 3.2 | 11.3 | 0.00 | 0.00 | 0.00 | 65 | 1015.1 |
| 20260508040003 | 19 | 300 | 3.2 | 12.9 | 0.00 | 0.00 | 0.00 | 66 | 1014.8 |
| 20260508035403 | 20 | 280 | 3.2 | 9.7 | 0.00 | 0.00 | 0.00 | 67 | 1014.8 |
| 20260508034503 | 20 | 292 | 3.2 | 6.4 | 0.00 | 0.00 | 0.00 | 65 | 1014.7 |
| 20260508033603 | 20 | 306 | 3.2 | 12.9 | 0.00 | 0.00 | 0.00 | 64 | 1014.7 |
| 20260508032703 | 21 | 311 | 4.8 | 12.9 | 0.00 | 0.00 | 0.00 | 69 | 1014.5 |
| 20260508031803 | 21 | 297 | 3.2 | 8.0 | 0.00 | 0.00 | 0.00 | 68 | 1014.4 |
| 20260508030903 | 22 | 289 | 3.2 | 11.3 | 0.00 | 0.00 | 0.00 | 67 | 1014.2 |
| 20260508030024 | 23 | 282 | 4.8 | 11.3 | 0.00 | 0.00 | 0.00 | 65 | 1014.2 |
| 20260508025403 | 23 | 282 | 4.8 | 11.3 | 0.00 | 0.00 | 0.00 | 63 | 1014.2 |
| 20260508024503 | 24 | 294 | 4.8 | 11.3 | 0.00 | 0.00 | 0.00 | 61 | 1014.1 |
| 20260508023603 | 25 | 308 | 6.4 | 16.1 | 0.00 | 0.00 | 0.00 | 59 | 1014.0 |
| 20260508022703 | 25 | 291 | 4.8 | 11.3 | 0.00 | 0.00 | 0.00 | 58 | 1013.9 |
| 20260508021803 | 26 | 318 | 6.4 | 14.5 | 0.00 | 0.00 | 0.00 | 58 | 1013.9 |
| 20260508020903 | 26 | 301 | 6.4 | 14.5 | 0.00 | 0.00 | 0.00 | 56 | 1013.9 |
| 20260508020003 | 26 | 309 | 6.4 | 14.5 | 0.00 | 0.00 | 0.00 | 55 | 1013.9 |
| 20260508015403 | 27 | 302 | 6.4 | 16.1 | 0.00 | 0.00 | 0.00 | 54 | 1013.9 |
| 20260508014503 | 27 | 324 | 8.0 | 16.1 | 0.00 | 0.00 | 0.00 | 53 | 1013.9 |
| 20260508013603 | 27 | 325 | 11.3 | 20.9 | 0.00 | 0.00 | 0.00 | 52 | 1013.9 |
| 20260508012703 | 28 | 321 | 9.7 | 17.7 | 0.00 | 0.00 | 0.00 | 50 | 1013.8 |
| 20260508011824 | 28 | 328 | 8.0 | 19.3 | 0.00 | 0.00 | 0.00 | 49 | 1013.9 |
| 20260508010924 | 30 | 318 | 8.0 | 17.7 | 0.00 | 0.00 | 0.00 | 47 | 1013.9 |
| 20260508010003 | 30 | 312 | 8.0 | 14.5 | 0.00 | 0.00 | 0.00 | 48 | 1013.8 |
| 20260508005403 | 30 | 302 | 8.0 | 14.5 | 0.00 | 0.00 | 0.00 | 47 | 1013.8 |
| 20260508004503 | 30 | 299 | 4.8 | 12.9 | 0.00 | 0.00 | 0.00 | 47 | 1013.7 |
| 20260508003603 | 30 | 303 | 6.4 | 12.9 | 0.00 | 0.00 | 0.00 | 47 | 1013.8 |
| 20260508002703 | 30 | 284 | 4.8 | 12.9 | 0.00 | 0.00 | 0.00 | 47 | 1013.9 |
| 20260508001803 | 30 | 325 | 8.0 | 16.1 | 0.00 | 0.00 | 0.00 | 50 | 1013.9 |
| 20260508000903 | 30 | 318 | 6.4 | 16.1 | 0.00 | 0.00 | 0.00 | 49 | 1013.9 |
| 20260508000024 | 30 | 318 | 8.0 | 14.5 | 0.00 | 0.00 | 0.00 | 50 | 1013.9 |
| 20260507235424 | 30 | 307 | 8.0 | 14.5 | 0.00 | 0.00 | 0.00 | 50 | 1013.9 |
| 20260507234524 | 30 | 311 | 6.4 | 14.5 | 0.00 | 0.00 | 0.00 | 48 | 1014.0 |
| 20260507233624 | 30 | 321 | 8.0 | 16.1 | 0.00 | 0.00 | 0.00 | 49 | 1014.1 |
| 20260507232724 | 30 | 308 | 6.4 | 17.7 | 0.00 | 0.00 | 0.00 | 48 | 1014.2 |
| 20260507231803 | 29 | 309 | 6.4 | 16.1 | 0.00 | 0.00 | 0.00 | 50 | 1014.4 |
| 20260507230903 | 29 | 308 | 8.0 | 14.5 | 0.00 | 0.00 | 0.00 | 50 | 1014.5 |
| 20260507230024 | 28 | 312 | 8.0 | 17.7 | 0.00 | 0.00 | 0.00 | 50 | 1014.6 |
| 20260507225403 | 28 | 307 | 8.0 | 14.5 | 0.00 | 0.00 | 0.00 | 50 | 1014.7 |
| 20260507224503 | 28 | 311 | 8.0 | 16.1 | 0.00 | 0.00 | 0.00 | 51 | 1014.7 |
| 20260507223603 | 28 | 322 | 6.4 | 17.7 | 0.00 | 0.00 | 0.00 | 51 | 1014.8 |
| 20260507222703 | 27 | 340 | 8.0 | 19.3 | 0.00 | 0.00 | 0.00 | 52 | 1014.8 |
| 20260507221803 | 27 | 341 | 6.4 | 17.7 | 0.00 | 0.00 | 0.00 | 52 | 1015.0 |
| 20260507220903 | 27 | 329 | 6.4 | 16.1 | 0.00 | 0.00 | 0.00 | 53 | 1015.0 |
| 20260507220003 | 27 | 330 | 8.0 | 17.7 | 0.00 | 0.00 | 0.00 | 54 | 1015.3 |
| 20260507215403 | 27 | 332 | 8.0 | 19.3 | 0.00 | 0.00 | 0.00 | 53 | 1015.4 |
| 20260507214503 | 27 | 333 | 8.0 | 17.7 | 0.00 | 0.00 | 0.00 | 53 | 1015.4 |
| 20260507213603 | 27 | 329 | 6.4 | 17.7 | 0.00 | 0.00 | 0.00 | 54 | 1015.5 |
| 20260507212703 | 27 | 320 | 6.4 | 16.1 | 0.00 | 0.00 | 0.00 | 54 | 1015.8 |
| 20260507211803 | 27 | 319 | 8.0 | 17.7 | 0.00 | 0.00 | 0.00 | 56 | 1015.9 |
| 20260507210903 | 26 | 332 | 8.0 | 17.7 | 0.00 | 0.00 | 0.00 | 55 | 1016.0 |
| 20260507210003 | 26 | 332 | 6.4 | 14.5 | 0.00 | 0.00 | 0.00 | 57 | 1016.1 |
| 20260507205403 | 26 | 325 | 6.4 | 14.5 | 0.00 | 0.00 | 0.00 | 57 | 1016.2 |
| 20260507204503 | 26 | 320 | 6.4 | 12.9 | 0.00 | 0.00 | 0.00 | 56 | 1016.3 |
| 20260507203603 | 26 | 309 | 4.8 | 12.9 | 0.00 | 0.00 | 0.00 | 58 | 1016.4 |
| 20260507202703 | 26 | 323 | 6.4 | 19.3 | 0.00 | 0.00 | 0.00 | 58 | 1016.4 |
| 20260507201803 | 25 | 328 | 4.8 | 17.7 | 0.00 | 0.00 | 0.00 | 58 | 1016.6 |
| 20260507200903 | 25 | 308 | 6.4 | 14.5 | 0.00 | 0.00 | 0.00 | 57 | 1016.6 |
| 20260507200003 | 25 | 326 | 6.4 | 14.5 | 0.00 | 0.00 | 0.00 | 59 | 1016.7 |
| 20260507195403 | 25 | 318 | 8.0 | 14.5 | 0.00 | 0.00 | 0.00 | 60 | 1016.8 |
| 20260507194503 | 25 | 315 | 6.4 | 17.7 | 0.00 | 0.00 | 0.00 | 61 | 1017.0 |
| 20260507193603 | 25 | 322 | 4.8 | 14.5 | 0.00 | 0.00 | 0.00 | 62 | 1017.0 |
| 20260507192703 | 25 | 314 | 4.8 | 12.9 | 0.00 | 0.00 | 0.00 | 61 | 1016.9 |
| 20260507191803 | 25 | 299 | 4.8 | 12.9 | 0.00 | 0.00 | 0.00 | 62 | 1017.1 |
| 20260507190903 | 24 | 331 | 6.4 | 9.7 | 0.00 | 0.00 | 0.00 | 62 | 1017.3 |
| 20260507190004 | 24 | 327 | 6.4 | 16.1 | 0.00 | 0.00 | 0.00 | 62 | 1017.4 |
| 20260507185403 | 24 | 321 | 4.8 | 16.1 | 0.00 | 0.00 | 0.00 | 64 | 1017.3 |
| 20260507184504 | 23 | 310 | 4.8 | 12.9 | 0.00 | 0.00 | 0.00 | 65 | 1017.5 |
| 20260507183603 | 23 | 270 | 3.2 | 11.3 | 0.00 | 0.00 | 0.00 | 64 | 1017.6 |
| 20260507182703 | 23 | 306 | 4.8 | 12.9 | 0.00 | 0.00 | 0.00 | 65 | 1017.6 |
| 20260507181803 | 23 | 1 | 4.8 | 16.1 | 0.00 | 0.00 | 0.00 | 64 | 1017.6 |
| 20260507180903 | 23 | 327 | 4.8 | 11.3 | 0.00 | 0.00 | 0.00 | 67 | 1017.6 |
| 20260507180003 | 22 | 311 | 3.2 | 9.7 | 0.00 | 0.00 | 0.00 | 68 | 1017.7 |
| 20260507175403 | 22 | 301 | 4.8 | 11.3 | 0.00 | 0.00 | 0.00 | 68 | 1017.7 |
| 20260507174524 | 22 | 333 | 4.8 | 12.9 | 0.00 | 0.00 | 0.00 | 70 | 1017.8 |